星链-34353 (STARLINK-34353)

导读 | 豆包AI

STARLINK-34353是美国SpaceX星链星座的卫星,于2025年6月4日发射升空,归属美国所有。星链计划旨在构建全球卫星互联网,该卫星是星座低轨组网的组成部分,将参与提供全球范围的宽带互联网接入服务,补充低轨星座覆盖能力,服务地面通信覆盖盲区,推动全球卫星互联网络构建。

基本信息
目录编号:
64278
目录名称:
STARLINK-34353
国际标识:
2025-120Y
轨道中心:
EARTH
卫星名称:
星链-34353
卫星全名:
星链-34353 (STARLINK-34353)
卫星状态:
在轨 (已飞行283 天)
发射日期:
2025-06-04 UTC
国别 :
美国 (US)
星等 :
--
轨道信息
数据来源 国际轨道数据
星历时间: 2026-03-14T15:57:16+0800
9小时前
查看轨道信息
半长轴: 6853.348km
偏心率: 0.0001312
轨道倾角: 53.159°
近地点辐角 87.235°
升交点赤经 95.355°
平近点角 272.880°
近地点: 474.311km
远地点: 476.111km
周期: 94.105分钟
每日圈数: 15.302016
详细信息
固有亮度:
5
最大亮度:
2.5
卫星平台:
Starlink V1.0
覆盖范围:
全球
运营商:
太空探索技术公司
运营商所在国:
美国
制造商(研发单位):
太空探索技术公司
制造商所在国:
美国
使用方式:
暂无
卫星简介
Starlink 计划是 SpaceX 推出的全球卫星互联网项目,通过发射低轨道卫星,为全球尤其是偏远地区提供高速、低延迟的互联网服务。自 2019 年起,Starlink 已部署数千颗卫星,旨在缩小全球数字鸿沟,推动互联网普及。该项目还为军事、航空等行业提供通信支持,带来广泛经济效益。
2D轨道图
3D轨道图
轨道高度分析图
轨道倾角分析图
轨道综合分析图
查看轨道综合分析图